SCP
0 -0 0 -0 -0 -0 -0 -0 -0 -0 -0 -0 -0 -0 -0 -0 -0 -0 -0 -0 -0 -0 -0 -0 -0 -0 -0 -0 -0 -0 -0 -0 -0 -0 -0 -0 -0 -0 -0 -0 -0 0 -0
0 -0 0 0 -0 -0 -0 -0 -0 -0 -0 -0 -0 -0 -0 -0 -0 -0 -0 -0 -0 -0 -0 -0 -0 -0 -0 -0 -0 -0 -0 -0 -0 -0 -0 -0 -0 -0 -0 -0 -0 -0 -0
-0 -0 0 -0 -0 -0 -0 0 -0 -0 -0 -0 -0 -0 -0 -0 -0 -0 -0 -0 -0 -0 -0 -0 -0 -0 -0 -0 -0 -0 -0 -0 -0 -0 -0 0 0 -0 -0 -0 -0 -0 -0
-0 -0 0 -0 -0 -0 -0 -0 -0 -0 -0 -0 -0 -0 -0 -0 -0 -0 -0 -0 -0 -0 -0 -0 -0 -0 -0 -0 -0 -0 -0 -0 -0 -0 0 0 0 -0 -0 -0 -0 -0 -0
-0 -0 -0 -0 -0 -0 -0 -0 -0 -0 -0 -0 -0 -0 -0 -0 -0 -0 -0 -0 -0 -0 -0 -0 -0 -0 -0 -0 -0 -0 -0 -0 -0 -0 0 0 0 0 -0 -0 -0 -0 -0
-0 -0 -0 -0 -0 -0 -0 -0 -0 -0 -0 -0 -0 -0 -0 -0 -0 -0 -0 -0 -0 -0 -0 -0 -0 -0 -0 -0 -0 -0 -0 -0 -0 0 0 0 0 0 0 0 0 0 0
-0 -0 -0 -0 -0 -0 -0 -0 -0 -0 -0 -0 -0 -0 -0 -0 -0 -0 -0 -0 -0 -0 -0 -0 -0 -0 -0 -0 -0 -0 -0 -0 0 0 0 0 0 0 0 0 0 0 0
-0 -0 -0 -0 -0 -0 -0 -0 -0 -0 -0 -0 -0 -0 -0 -0 -0 -0 -0 -0 -0 -0 -0 -0 -0 -0 -0 -0 -0 -0 -0 -0 0 0 0 0 0 0 0 0 0 0 0
-0 -0 -0 -0 -0 -0 -0 -0 -0 -0 -0 -0 -0 -0 -0 -0 -0 -0 -0 -0 -0 -0 -0 -0 -0 -0 -0 -0 -0 -0 -0 0 0 0 0 0 0 0 0 0 0 0 0
-0 -0 -0 0 -0 -0 -0 -0 -0 -0 -0 -0 -0 -0 -0 -0 -0 -0 -0 -0 -0 -0 -0 -0 0 0 0 0 0 0 0 0 0 0 0 0 0 0 0 0 0 0 0
0 0 0 0 0 0 0 0 -0 -0 -0 -0 -0 -0 -0 0 0 0 0 0 -0 0 -0 -0 0 0 0 0 0 0 0 0 0 0 0 0 0 0 0 0 0 0 0
0 0 0 0 0 0 0 0 0 0 0 0 0 0 0 0 0 0 0 0 0 0 0 -0 0 0 0 0 0 0 0 0 0 0 0 0 0 0 0 0 0 0 0
0 0 0 0 0 0 0 0 0 0 0 0 0 0 0 0 0 0 0 0 0 0 0 0 0 0 0 0 0 0 0 0 0 0 0 0 0 0 0 0 0 0 0
0 0 0 0 0 0 0 0 0 0 0 0 0 0 0 0 0 0 0 0 0 0 0 0 0 0 0 0 0 0 0 0 0 0 0 0 0 0 0 0 0 0 0
0 0 0 0 0 0 0 0 0 0 0 0 0 0 0 0 0 0 0 0 0 0 0 0 0 0 0 0 0 0 0 0 0 0 0 0 0 0 0 0 0 0 0
0 0 0 0 0 0 0 0 0 0 0 0 0 0 0 0 0 0 0 0 0 0 0 0 0 0 0 0 0 0 0 0 0 0 0 0 0 0 0 0 0 0 0
0 0 0 0 0 0 0 0 0 0 0 0 0 0 0 0 0 0 0 0 0 0 0 0 0 0 0 0 0 0 0 0 0 0 0 0 0 0 0 0 0 0 0
0 0 0 0 0 0 0 0 0 0 0 0 0 0 0 0 0 0 0 0 0 0 0 0 0 0 0 0 0 0 0 0 0 0 0 0 0 0 0 0 0 0 0
0 0 0 0 0 0 0 0 0 0 0 0 0 0 0 0 0 0 0 0 0 0 0 0 0 0 0 0 0 0 0 0 0 0 0 0 0 0 0 0 0 0 0
0 0 0 0 0 0 0 0 0 0 0 0 0 0 0 0 0 0 0 0 0 0 0 0 0 0 0 0 0 0 0 0 0 0 0 0 0 0 0 0 0 0 0
0 0 0 0 0 0 0 0 0 0 0 0 0 0 0 0 0 0 0 0 0 0 0 0 0 0 0 0 0 0 0 0 0 0 0 0 0 0 0 0 0 0 0
0 0 0 0 0 0 0 0 0 0 0 0 0 0 0 0 0 0 0 0 0 0 0 0 0 0 0 0 0 0 0 0 0 0 0 0 0 0 0 0 0 0 0
0 0 0 0 0 0 0 0 0 0 0 0 0 0 0 0 0 0 0 0 0 0 0 0 0 0 0 0 0 0 0 0 0 0 0 0 0 0 0 0 0 0 0
0 0 0 0 0 0 0 0 0 0 0 0 0 0 0 0 0 0 0 0 0 0 0 0 0 0 0 0 0 0 0 0 0 0 0 0 0 0 0 0 0 0 0
0 0 0 0 0 0 0 0 0 0 0 0 0 0 0 0 0 0 0 0 0 0 0 0 0 0 0 0 0 0 0 0 0 0 0 0 0 0 0 0 0 0 0
0 0 0 0 0 0 0 0 0 0 0 0 0 0 0 0 0 0 0 0 0 0 0 0 0 0 0 0 0 0 0 0 0 0 0 0 0 0 0 0 0 -0 -0
Wind_Speed_500mb
21 23 25 26 27 27 26 27 27 27 28 26 26 25 26 29 31 33 31 28 26 26 26 26 24 23 23 25 25 26 24 23 23 25 25 20 17 19 22 29 27 27 24
21 26 24 27 29 28 25 25 25 25 24 23 21 22 24 27 29 30 30 29 25 25 24 24 25 25 25 25 25 24 19 24 20 22 22 21 19 14 15 15 20 27 24
26 28 26 27 29 27 25 23 21 21 20 20 17 20 22 24 26 28 29 29 25 23 22 22 22 22 23 24 24 20 19 21 20 19 21 22 23 18 15 12 9 8 14
26 30 28 26 25 24 21 18 18 18 18 17 14 16 20 23 27 29 30 31 29 25 23 22 21 20 20 20 18 13 11 12 13 13 16 20 20 22 16 16 13 8 6
22 30 27 26 26 24 21 17 16 15 15 13 11 13 17 22 26 28 30 30 30 29 27 25 23 20 17 16 14 10 8 8 11 18 16 17 19 22 22 20 19 14 12
20 26 27 26 25 25 23 19 17 15 14 12 10 11 14 18 22 25 28 28 28 27 26 25 24 22 18 14 10 6 5 9 12 16 18 20 21 22 22 21 18 17 15
25 23 22 24 25 23 22 19 15 14 13 11 9 8 10 14 17 20 22 24 25 24 24 25 24 22 20 16 12 8 9 11 12 15 17 20 22 22 22 22 21 19 17
29 25 26 22 24 23 23 21 17 16 14 11 9 9 8 9 11 15 18 20 21 23 23 23 24 23 21 18 16 14 16 17 17 18 21 21 24 24 24 24 23 21 20
37 34 29 26 27 22 21 20 18 17 16 14 12 11 8 8 8 11 16 20 20 22 22 23 22 23 22 19 18 18 19 19 19 21 23 24 25 26 26 25 24 24 23
35 39 33 34 31 26 24 23 21 19 17 15 13 12 10 8 7 10 13 13 19 24 29 24 23 22 21 21 20 19 20 20 20 20 21 21 23 24 25 26 26 26 25
39 35 35 34 37 38 34 29 24 22 19 18 15 13 11 10 10 13 9 10 15 23 25 26 25 22 21 22 22 22 21 19 18 17 18 19 19 20 21 21 24 26 24
38 36 35 31 34 34 36 28 26 26 24 22 18 15 14 14 20 18 10 12 12 14 17 22 26 29 24 22 21 20 19 20 20 20 20 20 21 22 21 21 20 22 28
38 39 39 38 37 35 35 35 35 33 35 30 25 20 18 21 23 20 16 10 10 9 5 10 17 20 21 21 21 20 19 17 17 16 16 17 18 18 17 17 17 18 16
34 36 37 38 39 38 35 45 37 38 39 35 27 23 24 23 36 18 16 10 8 6 3 5 6 5 7 7 9 11 12 12 12 10 12 15 16 16 17 19 20 21 21
31 30 31 32 34 39 44 47 45 40 38 36 29 28 27 30 31 28 19 14 12 6 2 3 7 3 4 2 6 10 10 10 8 8 10 12 11 13 16 18 21 21 23
30 29 31 33 36 40 46 47 46 45 39 35 31 32 32 33 31 27 23 18 15 7 10 12 13 10 6 2 5 9 8 7 7 9 12 15 18 19 21 23 25 26 26
31 32 33 34 37 41 45 45 45 43 40 37 35 35 38 32 28 26 25 22 18 15 15 14 13 12 4 5 4 4 5 5 5 8 12 15 18 20 22 24 26 27 28
36 34 33 35 39 44 50 50 49 47 42 41 40 38 36 33 28 26 23 21 21 22 18 14 8 6 5 3 2 3 4 3 4 6 10 14 17 21 23 27 28 29 29
37 32 32 36 43 48 54 52 49 47 43 36 32 32 35 30 26 22 21 21 22 17 12 9 8 8 8 7 6 8 8 8 9 10 12 15 20 23 27 29 31 32 33
36 32 33 39 46 53 55 54 52 49 43 40 35 32 31 29 25 24 23 22 18 14 11 9 8 11 10 11 10 11 10 7 6 6 11 14 21 29 34 37 38 39 40
40 38 38 44 50 53 57 58 56 53 47 44 38 34 33 29 28 28 24 21 20 18 15 13 9 9 10 13 14 14 12 6 1 3 7 16 25 33 38 41 43 44 45
43 41 42 44 52 58 58 58 56 54 51 47 42 40 35 30 32 32 30 27 24 19 16 12 10 8 13 9 9 10 11 7 6 12 14 20 33 36 38 41 42 45 47
51 48 46 47 55 63 61 61 62 59 55 49 48 43 39 37 36 34 31 25 20 14 11 8 6 5 6 9 8 5 6 7 13 14 14 23 35 38 41 43 46 50 51
56 48 50 57 63 61 63 63 60 59 58 55 51 48 48 42 38 32 26 22 17 13 9 7 8 9 11 8 8 10 11 11 7 8 17 27 36 40 41 43 47 50 53
59 57 60 62 61 64 63 62 61 61 60 59 57 56 53 48 39 32 25 20 14 11 7 8 11 12 13 14 12 10 11 13 17 19 24 39 35 38 40 42 45 49 54
65 64 64 66 65 65 64 63 63 66 65 67 66 62 57 49 40 32 26 19 14 8 7 10 11 12 12 12 13 13 12 11 15 20 28 36 40 42 40 43 48 55 61
Wind_Direction_500mb
174 158 147 139 131 125 117 111 108 105 100 91 87 71 64 57 55 58 60 62 65 68 69 72 75 81 86 86 83 83 81 75 64 60 65 67 68 70 72 73 74 72 64
171 156 151 148 142 137 126 116 107 104 101 98 87 69 60 56 55 57 57 57 65 68 68 68 71 75 81 89 94 89 72 71 69 57 55 53 60 67 78 82 82 79 71
164 159 157 156 150 145 136 125 116 113 108 107 92 72 63 61 60 60 59 59 67 70 70 71 71 75 80 88 103 98 82 74 64 56 56 51 51 48 52 61 73 87 86
166 167 163 162 156 151 144 132 126 118 116 110 90 68 64 61 59 57 56 55 57 59 61 64 72 79 85 93 111 112 90 65 46 36 38 38 29 36 39 40 40 39 38
165 172 172 167 165 164 159 152 139 132 127 122 107 75 70 71 63 58 56 57 56 55 54 54 57 66 81 100 116 121 106 64 35 34 29 19 27 28 30 34 32 31 22
171 174 178 175 171 169 169 166 157 150 146 137 119 93 91 74 71 65 58 56 56 57 59 61 63 67 75 89 105 112 62 21 2 11 13 23 31 32 32 32 30 29 24
163 165 177 181 177 178 180 177 169 164 159 145 131 113 106 90 76 65 58 53 52 52 55 59 61 66 75 85 93 85 59 37 30 33 30 33 34 31 29 27 24 21 17
166 174 188 197 188 184 180 182 181 174 169 159 146 141 121 104 80 65 55 48 49 46 45 51 56 59 62 64 66 61 51 44 42 36 36 32 29 27 23 20 19 16 13
174 184 190 205 202 199 193 192 192 185 182 174 168 162 164 138 104 76 53 37 52 52 53 57 57 58 58 58 53 44 42 38 35 36 34 30 28 25 22 19 16 13 8
186 190 197 191 194 204 203 204 207 204 199 192 188 181 179 166 134 99 67 39 33 46 55 54 58 62 66 66 62 52 48 41 39 38 39 38 35 31 26 19 17 12 8
205 204 208 195 196 203 207 211 209 211 203 203 207 204 197 193 154 150 109 77 54 50 50 50 56 55 59 61 59 56 55 51 45 37 29 28 25 25 24 22 20 14 9
202 205 208 210 206 207 201 202 214 218 202 201 204 211 202 185 178 175 162 119 87 47 53 40 41 50 56 56 54 50 48 46 40 35 31 25 18 11 6 5 6 27 18
205 209 212 218 223 221 207 193 203 208 206 204 208 198 194 184 190 175 182 179 156 121 124 49 32 33 56 62 59 58 53 52 49 46 42 35 27 18 8 1 355 349 343
216 215 216 219 221 219 213 202 202 206 206 207 205 199 212 205 191 194 204 201 165 127 142 57 21 8 63 58 57 59 49 43 46 44 32 24 20 14 8 4 360 352 341
218 220 222 222 220 215 209 204 201 202 201 209 199 198 210 202 206 205 204 201 178 194 224 267 284 266 220 14 4 12 15 21 15 13 10 6 9 359 354 351 348 349 346
225 228 228 225 218 211 208 199 196 203 203 201 204 207 212 212 211 206 196 207 211 230 214 249 231 242 262 313 342 339 7 22 358 354 348 353 356 354 354 348 349 346 342
230 238 239 233 219 207 199 189 190 196 197 200 202 203 206 209 212 214 216 214 218 219 235 218 232 243 205 283 355 25 38 29 3 360 0 5 5 5 5 359 357 355 353
231 235 237 229 216 202 193 189 192 194 199 202 203 210 207 208 212 215 218 209 202 209 207 208 189 172 197 189 133 92 70 60 18 17 17 14 13 11 9 10 6 2 0
229 230 228 219 208 197 190 191 196 198 198 193 197 198 204 204 204 199 192 190 179 171 166 168 161 141 134 134 140 108 97 92 81 63 45 34 27 18 12 6 359 352 351
231 230 223 211 196 188 191 192 194 198 198 198 199 196 197 190 188 182 182 181 177 185 184 165 136 112 115 109 121 124 114 94 72 39 23 16 9 359 355 349 347 346 343
225 225 219 209 192 192 188 189 193 196 195 198 197 204 192 188 183 185 187 187 177 168 160 141 126 98 107 114 135 130 130 135 316 360 353 344 346 350 347 346 347 343 341
226 220 211 202 190 185 191 192 194 195 195 196 197 199 190 187 174 167 167 164 158 163 156 151 139 127 116 148 192 180 171 191 315 300 315 338 348 350 349 351 349 347 346
218 214 207 197 189 190 191 193 193 193 192 193 194 192 183 178 171 164 158 160 159 155 154 146 126 104 98 97 104 180 209 222 302 264 295 329 341 349 353 353 351 352 352
216 208 202 194 191 194 195 196 199 199 195 194 193 188 177 170 164 161 162 163 160 157 149 126 76 47 38 35 26 20 9 349 340 304 312 335 352 354 359 357 354 354 352
209 206 200 196 195 196 198 198 198 199 201 195 186 178 171 166 168 166 165 162 164 153 130 75 54 40 23 14 15 24 358 341 338 332 331 334 342 353 357 356 354 352 350
205 203 199 195 198 199 200 201 201 205 200 188 180 177 173 171 169 167 168 169 167 152 85 52 26 12 10 11 15 15 4 354 343 342 333 335 341 348 352 355 350 351 349
Wind_Speed_850mb
21 23 25 26 27 27 26 27 27 27 28 26 26 25 26 29 31 33 31 28 26 26 26 26 24 23 23 25 25 26 24 23 23 25 25 20 17 19 22 29 27 27 24
21 26 24 27 29 28 25 25 25 25 24 23 21 22 24 27 29 30 30 29 25 25 24 24 25 25 25 25 25 24 19 24 20 22 22 21 19 14 15 15 20 27 24
26 28 26 27 29 27 25 23 21 21 20 20 17 20 22 24 26 28 29 29 25 23 22 22 22 22 23 24 24 20 19 21 20 19 21 22 23 18 15 12 9 8 14
26 30 28 26 25 24 21 18 18 18 18 17 14 16 20 23 27 29 30 31 29 25 23 22 21 20 20 20 18 13 11 12 13 13 16 20 20 22 16 16 13 8 6
22 30 27 26 26 24 21 17 16 15 15 13 11 13 17 22 26 28 30 30 30 29 27 25 23 20 17 16 14 10 8 8 11 18 16 17 19 22 22 20 19 14 12
20 26 27 26 25 25 23 19 17 15 14 12 10 11 14 18 22 25 28 28 28 27 26 25 24 22 18 14 10 6 5 9 12 16 18 20 21 22 22 21 18 17 15
25 23 22 24 25 23 22 19 15 14 13 11 9 8 10 14 17 20 22 24 25 24 24 25 24 22 20 16 12 8 9 11 12 15 17 20 22 22 22 22 21 19 17
29 25 26 22 24 23 23 21 17 16 14 11 9 9 8 9 11 15 18 20 21 23 23 23 24 23 21 18 16 14 16 17 17 18 21 21 24 24 24 24 23 21 20
37 34 29 26 27 22 21 20 18 17 16 14 12 11 8 8 8 11 16 20 20 22 22 23 22 23 22 19 18 18 19 19 19 21 23 24 25 26 26 25 24 24 23
35 39 33 34 31 26 24 23 21 19 17 15 13 12 10 8 7 10 13 13 19 24 29 24 23 22 21 21 20 19 20 20 20 20 21 21 23 24 25 26 26 26 25
39 35 35 34 37 38 34 29 24 22 19 18 15 13 11 10 10 13 9 10 15 23 25 26 25 22 21 22 22 22 21 19 18 17 18 19 19 20 21 21 24 26 24
38 36 35 31 34 34 36 28 26 26 24 22 18 15 14 14 20 18 10 12 12 14 17 22 26 29 24 22 21 20 19 20 20 20 20 20 21 22 21 21 20 22 28
38 39 39 38 37 35 35 35 35 33 35 30 25 20 18 21 23 20 16 10 10 9 5 10 17 20 21 21 21 20 19 17 17 16 16 17 18 18 17 17 17 18 16
34 36 37 38 39 38 35 45 37 38 39 35 27 23 24 23 36 18 16 10 8 6 3 5 6 5 7 7 9 11 12 12 12 10 12 15 16 16 17 19 20 21 21
31 30 31 32 34 39 44 47 45 40 38 36 29 28 27 30 31 28 19 14 12 6 2 3 7 3 4 2 6 10 10 10 8 8 10 12 11 13 16 18 21 21 23
30 29 31 33 36 40 46 47 46 45 39 35 31 32 32 33 31 27 23 18 15 7 10 12 13 10 6 2 5 9 8 7 7 9 12 15 18 19 21 23 25 26 26
31 32 33 34 37 41 45 45 45 43 40 37 35 35 38 32 28 26 25 22 18 15 15 14 13 12 4 5 4 4 5 5 5 8 12 15 18 20 22 24 26 27 28
36 34 33 35 39 44 50 50 49 47 42 41 40 38 36 33 28 26 23 21 21 22 18 14 8 6 5 3 2 3 4 3 4 6 10 14 17 21 23 27 28 29 29
37 32 32 36 43 48 54 52 49 47 43 36 32 32 35 30 26 22 21 21 22 17 12 9 8 8 8 7 6 8 8 8 9 10 12 15 20 23 27 29 31 32 33
36 32 33 39 46 53 55 54 52 49 43 40 35 32 31 29 25 24 23 22 18 14 11 9 8 11 10 11 10 11 10 7 6 6 11 14 21 29 34 37 38 39 40
40 38 38 44 50 53 57 58 56 53 47 44 38 34 33 29 28 28 24 21 20 18 15 13 9 9 10 13 14 14 12 6 1 3 7 16 25 33 38 41 43 44 45
43 41 42 44 52 58 58 58 56 54 51 47 42 40 35 30 32 32 30 27 24 19 16 12 10 8 13 9 9 10 11 7 6 12 14 20 33 36 38 41 42 45 47
51 48 46 47 55 63 61 61 62 59 55 49 48 43 39 37 36 34 31 25 20 14 11 8 6 5 6 9 8 5 6 7 13 14 14 23 35 38 41 43 46 50 51
56 48 50 57 63 61 63 63 60 59 58 55 51 48 48 42 38 32 26 22 17 13 9 7 8 9 11 8 8 10 11 11 7 8 17 27 36 40 41 43 47 50 53
59 57 60 62 61 64 63 62 61 61 60 59 57 56 53 48 39 32 25 20 14 11 7 8 11 12 13 14 12 10 11 13 17 19 24 39 35 38 40 42 45 49 54
65 64 64 66 65 65 64 63 63 66 65 67 66 62 57 49 40 32 26 19 14 8 7 10 11 12 12 12 13 13 12 11 15 20 28 36 40 42 40 43 48 55 61
Wind_Direction_850mb
174 158 147 139 131 125 117 111 108 105 100 91 87 71 64 57 55 58 60 62 65 68 69 72 75 81 86 86 83 83 81 75 64 60 65 67 68 70 72 73 74 72 64
171 156 151 148 142 137 126 116 107 104 101 98 87 69 60 56 55 57 57 57 65 68 68 68 71 75 81 89 94 89 72 71 69 57 55 53 60 67 78 82 82 79 71
164 159 157 156 150 145 136 125 116 113 108 107 92 72 63 61 60 60 59 59 67 70 70 71 71 75 80 88 103 98 82 74 64 56 56 51 51 48 52 61 73 87 86
166 167 163 162 156 151 144 132 126 118 116 110 90 68 64 61 59 57 56 55 57 59 61 64 72 79 85 93 111 112 90 65 46 36 38 38 29 36 39 40 40 39 38
165 172 172 167 165 164 159 152 139 132 127 122 107 75 70 71 63 58 56 57 56 55 54 54 57 66 81 100 116 121 106 64 35 34 29 19 27 28 30 34 32 31 22
171 174 178 175 171 169 169 166 157 150 146 137 119 93 91 74 71 65 58 56 56 57 59 61 63 67 75 89 105 112 62 21 2 11 13 23 31 32 32 32 30 29 24
163 165 177 181 177 178 180 177 169 164 159 145 131 113 106 90 76 65 58 53 52 52 55 59 61 66 75 85 93 85 59 37 30 33 30 33 34 31 29 27 24 21 17
166 174 188 197 188 184 180 182 181 174 169 159 146 141 121 104 80 65 55 48 49 46 45 51 56 59 62 64 66 61 51 44 42 36 36 32 29 27 23 20 19 16 13
174 184 190 205 202 199 193 192 192 185 182 174 168 162 164 138 104 76 53 37 52 52 53 57 57 58 58 58 53 44 42 38 35 36 34 30 28 25 22 19 16 13 8
186 190 197 191 194 204 203 204 207 204 199 192 188 181 179 166 134 99 67 39 33 46 55 54 58 62 66 66 62 52 48 41 39 38 39 38 35 31 26 19 17 12 8
205 204 208 195 196 203 207 211 209 211 203 203 207 204 197 193 154 150 109 77 54 50 50 50 56 55 59 61 59 56 55 51 45 37 29 28 25 25 24 22 20 14 9
202 205 208 210 206 207 201 202 214 218 202 201 204 211 202 185 178 175 162 119 87 47 53 40 41 50 56 56 54 50 48 46 40 35 31 25 18 11 6 5 6 27 18
205 209 212 218 223 221 207 193 203 208 206 204 208 198 194 184 190 175 182 179 156 121 124 49 32 33 56 62 59 58 53 52 49 46 42 35 27 18 8 1 355 349 343
216 215 216 219 221 219 213 202 202 206 206 207 205 199 212 205 191 194 204 201 165 127 142 57 21 8 63 58 57 59 49 43 46 44 32 24 20 14 8 4 360 352 341
218 220 222 222 220 215 209 204 201 202 201 209 199 198 210 202 206 205 204 201 178 194 224 267 284 266 220 14 4 12 15 21 15 13 10 6 9 359 354 351 348 349 346
225 228 228 225 218 211 208 199 196 203 203 201 204 207 212 212 211 206 196 207 211 230 214 249 231 242 262 313 342 339 7 22 358 354 348 353 356 354 354 348 349 346 342
230 238 239 233 219 207 199 189 190 196 197 200 202 203 206 209 212 214 216 214 218 219 235 218 232 243 205 283 355 25 38 29 3 360 0 5 5 5 5 359 357 355 353
231 235 237 229 216 202 193 189 192 194 199 202 203 210 207 208 212 215 218 209 202 209 207 208 189 172 197 189 133 92 70 60 18 17 17 14 13 11 9 10 6 2 0
229 230 228 219 208 197 190 191 196 198 198 193 197 198 204 204 204 199 192 190 179 171 166 168 161 141 134 134 140 108 97 92 81 63 45 34 27 18 12 6 359 352 351
231 230 223 211 196 188 191 192 194 198 198 198 199 196 197 190 188 182 182 181 177 185 184 165 136 112 115 109 121 124 114 94 72 39 23 16 9 359 355 349 347 346 343
225 225 219 209 192 192 188 189 193 196 195 198 197 204 192 188 183 185 187 187 177 168 160 141 126 98 107 114 135 130 130 135 316 360 353 344 346 350 347 346 347 343 341
226 220 211 202 190 185 191 192 194 195 195 196 197 199 190 187 174 167 167 164 158 163 156 151 139 127 116 148 192 180 171 191 315 300 315 338 348 350 349 351 349 347 346
218 214 207 197 189 190 191 193 193 193 192 193 194 192 183 178 171 164 158 160 159 155 154 146 126 104 98 97 104 180 209 222 302 264 295 329 341 349 353 353 351 352 352
216 208 202 194 191 194 195 196 199 199 195 194 193 188 177 170 164 161 162 163 160 157 149 126 76 47 38 35 26 20 9 349 340 304 312 335 352 354 359 357 354 354 352
209 206 200 196 195 196 198 198 198 199 201 195 186 178 171 166 168 166 165 162 164 153 130 75 54 40 23 14 15 24 358 341 338 332 331 334 342 353 357 356 354 352 350
205 203 199 195 198 199 200 201 201 205 200 188 180 177 173 171 169 167 168 169 167 152 85 52 26 12 10 11 15 15 4 354 343 342 333 335 341 348 352 355 350 351 349